TimeEST,TemperatureF,Dew PointF,Humidity,Sea Level PressureIn,VisibilityMPH,Wind Direction,Wind SpeedMPH,Gust SpeedMPH,PrecipitationIn,Events,Conditions,WindDirDegrees,DateUTC
12:54 AM,30.9,24.1,76,30.19,8.0,SSE,12.7,-,N/A,,Overcast,160,2013-02-07 05:54:00
1:54 AM,30.9,24.1,76,30.18,7.0,SE,8.1,-,N/A,,Mostly Cloudy,140,2013-02-07 06:54:00
2:54 AM,30.0,24.1,79,30.18,7.0,SE,6.9,-,N/A,,Clear,140,2013-02-07 07:54:00
3:54 AM,28.0,23.0,81,30.17,5.0,ESE,5.8,-,N/A,,Haze,110,2013-02-07 08:54:00
4:54 AM,28.0,23.0,81,30.17,6.0,ESE,6.9,-,N/A,,Haze,120,2013-02-07 09:54:00
5:54 AM,28.0,21.9,78,30.17,6.0,East,4.6,-,N/A,,Haze,90,2013-02-07 10:54:00
6:54 AM,28.0,21.9,78,30.17,6.0,SE,9.2,-,N/A,,Haze,130,2013-02-07 11:54:00
7:54 AM,28.9,23.0,78,30.15,5.0,SE,8.1,-,N/A,,Haze,130,2013-02-07 12:54:00
8:54 AM,28.9,24.1,82,30.14,4.0,ESE,5.8,-,N/A,,Haze,110,2013-02-07 13:54:00
9:54 AM,-9999,-9999,N/A,30.09,4.0,North,-9999.0,-,N/A,,Haze,0,2013-02-07 14:54:00
10:54 AM,32.0,25.0,75,30.09,-9999.0,SE,12.7,-,N/A,,Unknown,130,2013-02-07 15:54:00
11:54 AM,34.0,26.1,73,30.07,5.0,SE,11.5,-,N/A,,Haze,130,2013-02-07 16:54:00
12:54 PM,37.9,27.0,65,30.04,6.0,SSE,10.4,-,N/A,,Haze,150,2013-02-07 17:54:00
1:54 PM,39.0,27.0,62,29.99,6.0,SE,11.5,-,N/A,,Haze,140,2013-02-07 18:54:00
2:54 PM,39.9,27.0,60,29.96,6.0,SE,9.2,-,N/A,,Haze,140,2013-02-07 19:54:00
3:54 PM,39.9,28.0,63,29.94,6.0,ESE,10.4,-,N/A,,Haze,120,2013-02-07 20:54:00
4:54 PM,39.0,28.0,65,29.90,6.0,ESE,12.7,-,N/A,,Haze,110,2013-02-07 21:54:00
5:54 PM,39.0,28.0,65,29.88,6.0,ESE,10.4,-,N/A,,Haze,120,2013-02-07 22:54:00
6:54 PM,37.9,28.9,70,29.88,7.0,ESE,5.8,-,0.00,,Overcast,110,2013-02-07 23:54:00
7:54 PM,36.0,30.9,82,29.87,4.0,Calm,Calm,-,0.03,Rain,Light Rain,0,2013-02-08 00:54:00
8:54 PM,35.1,32.0,89,29.87,2.5,ENE,4.6,-,0.08,Rain,Rain,70,2013-02-08 01:54:00
9:11 PM,33.8,32.0,93,29.84,2.5,ENE,4.6,-,0.02,Rain,Light Rain,70,2013-02-08 02:11:00
9:43 PM,33.8,30.2,87,29.81,2.5,East,6.9,-,0.03,Rain,Light Rain,80,2013-02-08 02:43:00
9:54 PM,34.0,32.0,92,29.81,2.5,ENE,4.6,-,0.03,Rain,Light Rain,60,2013-02-08 02:54:00
10:07 PM,33.8,32.0,93,29.82,2.5,NNE,4.6,-,0.01,Rain,Light Rain,20,2013-02-08 03:07:00
10:54 PM,34.0,32.0,92,29.84,2.0,NW,4.6,-,0.03,Rain,Light Rain,320,2013-02-08 03:54:00
11:54 PM,34.0,32.0,92,29.84,2.0,North,4.6,-,0.00,,Overcast,360,2013-02-08 04:54:00